Wind_Speed
33 37 49 51 44 36 15 34 29 30 26 24 32 30 28 23 18 23 26 23 26 31 30 34 35 35 35 36 36 36 32 28 27 27 25 25 25 25 27 26 28 28 28 28
22 41 46 35 34 37 36 23 26 24 25 21 20 28 31 31 30 22 21 27 28 30 36 36 37 35 31 27 25 24 27 29 27 28 27 25 27 25 26 29 28 28 28 32
27 21 26 38 37 36 37 38 23 20 22 27 20 27 26 29 31 30 30 25 25 28 35 41 39 37 33 31 28 25 26 27 29 31 28 24 25 27 30 30 29 30 31 32
31 31 20 30 39 36 39 37 26 20 14 19 23 9 28 31 28 34 32 31 29 28 31 36 40 38 36 30 28 30 31 31 31 27 22 23 28 30 30 31 29 29 29 24
30 27 36 30 37 36 37 30 35 27 22 17 17 15 14 23 30 29 31 29 28 28 29 33 40 40 35 31 31 31 32 30 29 24 23 24 30 29 27 27 24 20 19 17
16 15 18 40 30 31 25 25 30 29 25 19 27 24 22 25 27 28 24 28 28 27 27 28 31 36 35 37 40 38 36 33 28 26 25 27 24 23 23 21 19 17 14 13
19 23 23 19 37 32 30 28 13 17 18 17 34 23 18 20 19 23 23 25 26 26 27 29 30 33 36 39 42 36 35 33 29 29 30 25 26 21 20 19 16 14 15 15
11 9 25 24 35 38 41 41 24 24 22 22 11 25 23 13 16 25 28 27 29 28 28 32 33 34 34 29 34 36 35 35 31 32 28 25 24 20 18 19 21 19 18 17
8 11 12 27 31 34 41 44 38 19 34 17 20 10 18 23 20 15 22 24 24 30 30 34 36 35 29 30 30 29 30 33 32 32 28 26 25 23 23 20 18 17 19 20
12 11 10 25 30 31 40 40 36 20 22 19 19 22 14 27 22 16 19 30 30 31 35 34 31 29 28 28 27 29 29 32 33 31 28 27 28 28 26 21 18 17 18 21
24 17 11 29 27 36 36 38 31 26 23 14 14 15 13 28 24 22 27 30 33 35 34 31 29 28 29 27 24 26 30 32 33 31 27 26 27 29 29 24 18 19 22 24
16 12 6 36 12 32 32 36 38 21 19 26 14 10 14 20 22 25 29 32 33 32 31 29 30 30 26 24 25 28 30 32 30 27 25 25 26 28 30 30 25 22 30 30
14 13 9 10 18 27 23 39 42 26 16 15 12 11 16 26 27 27 30 32 31 29 30 31 32 29 27 26 26 25 28 27 25 23 22 24 26 25 33 35 48 37 37 29
2 10 12 13 32 33 26 32 42 30 16 19 11 23 20 24 28 27 27 29 30 30 30 32 33 32 27 24 22 22 24 24 23 20 18 20 19 20 24 23 23 26 27 28
15 2 3 11 26 35 30 34 41 31 23 8 16 26 28 25 27 27 27 30 30 31 32 32 31 30 27 21 21 22 21 20 17 17 18 20 15 19 22 21 23 27 31 34
22 9 11 19 25 28 21 33 34 25 17 6 23 25 28 27 27 30 31 31 31 30 30 30 27 23 19 18 18 18 15 11 16 15 24 16 11 17 19 24 27 30 32 34
15 14 3 6 25 24 11 30 34 18 21 13 27 27 32 34 37 37 32 30 32 33 30 26 21 17 14 12 15 12 9 9 9 5 6 10 16 20 24 27 29 30 32 34
15 14 7 24 31 7 14 26 31 20 14 6 15 29 37 43 41 39 39 35 30 27 23 21 18 16 13 11 13 14 11 8 9 11 16 20 24 24 25 27 29 30 31 32
14 10 7 8 1 29 17 21 35 28 20 12 32 33 33 37 39 39 32 27 22 19 18 17 17 16 17 17 14 10 9 9 12 17 20 23 25 27 28 28 28 28 28 27
9 7 8 13 7 5 19 20 30 27 16 19 21 25 32 36 40 35 28 21 20 20 21 20 21 21 18 13 9 7 7 10 16 18 20 24 25 26 26 24 22 21 21 22
6 13 5 8 7 10 12 21 26 23 19 24 32 33 26 27 31 35 28 22 20 21 20 20 19 17 11 7 4 6 11 13 16 19 21 22 24 23 20 19 19 19 19 19
5 4 2 2 9 7 21 20 13 11 28 24 40 39 37 29 30 30 26 22 22 21 21 17 13 12 7 4 7 10 12 16 18 19 20 22 22 18 16 16 16 14 14 16
3 4 2 5 5 14 22 21 15 12 18 20 36 29 24 25 26 28 27 21 20 17 14 10 8 7 6 7 8 11 14 16 16 17 18 18 14 13 13 12 10 9 12 16
11 7 11 7 13 19 24 30 19 14 8 24 27 27 24 26 31 28 26 24 19 12 10 6 4 3 4 7 11 13 14 14 14 14 16 15 12 12 10 9 7 10 9 9
9 10 12 20 16 20 24 27 19 19 29 34 29 26 22 27 29 26 23 19 15 11 8 5 2 3 7 9 12 12 12 11 12 13 15 13 9 8 6 5 8 9 8 5
8 20 14 20 21 23 25 23 30 36 34 27 23 26 31 28 27 24 16 14 11 8 4 0 3 6 9 11 10 9 9 10 11 10 12 10 7 6 5 4 5 5 6 7
Wind_Direction
218 210 217 217 215 227 229 233 233 228 212 224 228 231 232 223 218 220 215 212 209 207 204 201 199 202 209 215 220 221 217 221 228 230 236 240 241 243 248 254 255 256 258 257
200 221 228 225 223 224 226 232 231 231 225 221 225 232 228 229 227 221 218 216 213 209 206 204 204 202 203 205 210 216 221 226 228 233 236 242 245 245 249 248 255 259 259 263
213 236 229 217 217 217 221 220 224 220 228 229 233 240 231 230 229 223 223 220 216 210 206 208 208 209 208 211 213 217 221 223 227 233 237 240 236 240 243 247 256 258 264 267
232 230 234 215 215 212 218 213 209 203 192 213 208 254 221 222 224 222 221 220 215 211 207 208 211 212 213 214 217 219 222 225 228 230 229 229 235 240 243 248 256 267 267 260
223 228 224 217 214 213 224 214 214 217 228 230 199 231 224 207 213 215 213 215 213 210 209 206 210 215 219 215 214 218 220 219 214 215 217 228 235 241 247 256 260 256 254 257
244 241 223 222 217 212 211 208 209 213 219 223 221 214 218 206 209 212 214 209 210 207 208 207 212 216 215 214 214 217 216 211 210 212 220 227 236 240 250 250 252 253 252 242
241 243 233 208 207 205 199 192 179 199 211 222 215 216 227 202 200 204 208 208 208 208 207 206 208 205 211 219 219 215 213 211 210 212 222 227 232 237 241 239 237 241 237 245
242 222 213 202 200 196 196 189 187 183 192 205 228 216 203 185 193 188 189 191 202 204 203 206 206 206 211 212 210 213 213 213 210 212 224 235 236 237 240 239 243 243 240 245
256 242 212 198 188 188 187 196 197 205 202 206 177 202 192 187 212 185 188 192 199 211 207 202 197 199 203 203 204 209 215 214 210 215 225 237 237 231 229 237 244 251 253 259
241 263 200 185 183 196 192 190 214 221 186 210 177 198 189 190 185 183 169 195 195 193 187 186 190 194 196 201 208 213 213 210 210 217 229 235 235 236 231 235 244 259 266 269
234 235 179 183 195 187 183 196 200 204 198 194 172 170 142 170 173 177 184 180 180 178 180 184 190 193 198 205 210 206 204 207 212 222 234 239 243 243 242 241 248 262 278 278
207 184 160 195 196 188 193 194 198 207 188 213 191 127 125 164 168 178 173 168 166 171 179 188 196 197 196 197 194 196 202 207 217 226 230 227 238 247 252 262 253 262 285 281
180 199 173 197 205 196 208 195 197 196 203 202 189 134 150 181 175 169 166 165 168 178 190 198 201 198 180 186 189 196 206 215 227 234 234 240 246 262 272 265 259 245 269 276
233 220 216 190 195 189 199 195 196 195 218 185 215 150 165 174 167 159 155 157 160 160 159 159 164 167 174 176 186 200 210 218 226 231 239 252 262 268 258 254 251 260 272 279
1 239 201 170 180 187 196 187 190 203 204 217 158 159 175 169 165 158 159 154 153 156 161 165 165 165 168 180 196 203 213 220 230 244 249 252 253 253 258 265 271 274 276 277
10 49 96 133 157 157 180 180 185 190 197 247 151 148 169 162 159 148 150 155 155 155 155 155 156 160 171 187 200 213 218 237 258 279 253 256 239 259 270 277 282 282 282 282
355 17 71 131 156 156 186 185 178 185 182 175 148 155 161 151 150 154 155 151 142 136 137 140 145 152 167 194 217 216 222 214 200 216 247 269 281 284 287 288 287 286 286 285
6 31 43 123 134 164 154 174 175 162 163 132 152 147 156 156 158 148 140 136 140 145 151 157 158 163 170 173 177 178 178 200 227 260 278 288 296 293 291 290 289 288 288 289
25 40 77 136 151 121 132 158 169 174 147 166 143 147 148 153 144 141 149 147 145 148 148 154 159 164 164 168 183 198 220 250 272 287 292 296 299 302 303 302 301 298 297 297
44 91 110 143 102 115 145 144 165 171 158 178 155 140 153 154 159 147 147 148 158 168 171 171 170 171 178 184 188 210 270 289 295 297 303 307 312 313 312 309 306 305 306 306
68 122 80 114 103 109 133 152 147 179 175 185 173 146 153 162 162 147 153 162 165 165 160 162 169 178 180 190 232 283 292 294 306 315 316 319 321 322 322 322 322 323 322 320
102 175 66 34 111 111 152 146 162 157 168 174 165 160 165 168 167 154 148 153 150 151 152 165 176 175 180 249 279 287 303 313 318 324 329 334 335 329 330 331 329 332 339 347
58 127 107 77 85 152 149 149 157 121 161 166 172 169 164 166 178 158 148 146 149 155 155 155 174 173 219 261 288 309 317 324 329 328 330 331 332 332 328 329 338 357 10 14
99 117 122 99 102 139 147 155 179 149 176 143 147 147 153 169 163 154 149 151 148 159 150 161 175 213 272 310 320 324 325 325 326 329 332 335 336 335 340 354 12 14 9 41
108 120 131 119 124 139 147 171 188 146 141 135 140 143 154 158 146 143 148 149 143 153 173 177 202 314 330 326 322 321 326 325 327 331 335 327 329 343 350 12 9 13 31 39
117 127 137 136 148 155 141 146 148 141 142 143 153 159 140 135 136 142 143 145 151 153 149 171 334 326 322 322 324 329 329 327 325 320 328 321 301 332 3 338 340 5 14 26
Height
2998 3008 2999 3000 3015 3024 3028 3030 3033 3039 3045 3046 3047 3053 3055 3060 3061 3064 3068 3074 3078 3084 3091 3096 3099 3103 3107 3111 3116 3121 3124 3129 3132 3135 3137 3139 3140 3142 3143 3143 3142 3142 3142 3143
2996 2990 2994 3010 3015 3018 3022 3026 3028 3035 3039 3041 3044 3045 3050 3052 3054 3059 3062 3066 3071 3076 3083 3088 3093 3098 3103 3108 3112 3117 3121 3125 3128 3131 3133 3135 3136 3138 3138 3138 3138 3137 3136 3136
2987 2988 2990 2999 3005 3010 3014 3019 3025 3031 3034 3038 3041 3039 3041 3043 3048 3051 3055 3061 3065 3070 3076 3082 3088 3094 3100 3104 3109 3114 3116 3120 3123 3124 3127 3130 3131 3132 3133 3133 3131 3130 3130 3130
2981 2984 2987 2993 2996 3003 3006 3014 3023 3028 3030 3030 3034 3025 3028 3034 3038 3041 3047 3052 3058 3064 3070 3077 3082 3089 3094 3102 3106 3108 3110 3113 3116 3120 3123 3124 3126 3126 3126 3124 3124 3125 3125 3125
2969 2975 2980 2985 2987 2996 2999 3012 3018 3025 3027 3027 3028 3032 3021 3027 3030 3033 3038 3045 3051 3058 3065 3070 3076 3083 3091 3097 3098 3103 3105 3108 3111 3114 3117 3119 3120 3121 3121 3121 3121 3121 3122 3122
2969 2969 2972 2974 2985 2992 3003 3008 3014 3021 3023 3020 3020 3024 3016 3018 3023 3030 3034 3039 3046 3053 3061 3067 3072 3079 3084 3088 3091 3094 3099 3102 3106 3110 3113 3114 3116 3117 3117 3117 3117 3117 3118 3118
2964 2963 2965 2967 2979 2987 2993 3001 3007 3013 3014 3001 3012 3016 3014 3014 3019 3025 3029 3034 3041 3048 3056 3061 3065 3072 3076 3079 3084 3090 3094 3099 3102 3105 3107 3110 3111 3112 3113 3112 3113 3113 3114 3114
2956 2956 2956 2959 2967 2973 2980 2987 2981 2983 2986 2988 3003 3003 3009 3014 3014 3015 3020 3026 3033 3040 3048 3053 3060 3066 3069 3075 3080 3086 3090 3094 3097 3100 3104 3106 3108 3109 3111 3110 3110 3110 3110 3110
2951 2949 2948 2954 2961 2969 2976 2979 2978 2980 2987 2987 2995 3001 3005 3009 3011 3013 3018 3023 3028 3034 3041 3048 3054 3059 3066 3072 3077 3083 3087 3090 3094 3098 3101 3102 3104 3105 3106 3107 3107 3107 3107 3108
2949 2948 2946 2952 2960 2966 2967 2976 2978 2978 2976 2980 2983 2993 2992 3004 3008 3010 3014 3016 3023 3029 3035 3043 3051 3058 3064 3070 3074 3079 3083 3087 3091 3095 3097 3098 3099 3101 3103 3103 3103 3104 3103 3104
2944 2947 2945 2950 2951 2954 2964 2971 2976 2975 2973 2970 2975 2985 2993 2999 3004 3006 3008 3014 3021 3028 3035 3042 3049 3055 3060 3065 3070 3074 3079 3084 3087 3091 3094 3095 3097 3098 3099 3099 3098 3098 3098 3098
2937 2940 2940 2943 2949 2956 2961 2967 2972 2969 2971 2970 2968 2986 2994 3000 3000 3002 3008 3013 3019 3027 3034 3040 3046 3051 3056 3062 3066 3071 3076 3080 3084 3087 3089 3091 3093 3094 3094 3094 3094 3093 3091 3091
2933 2935 2940 2946 2948 2950 2953 2962 2966 2970 2969 2968 2966 2986 2992 2993 2997 3002 3006 3011 3018 3024 3030 3036 3042 3049 3055 3060 3065 3070 3075 3079 3081 3084 3085 3086 3088 3088 3089 3088 3089 3090 3090 3086
2931 2930 2927 2927 2928 2942 2953 2957 2964 2969 2970 2969 2969 2978 2989 2992 2996 3000 3006 3011 3017 3023 3029 3036 3042 3048 3054 3059 3064 3069 3073 3076 3078 3080 3082 3083 3083 3084 3083 3081 3081 3082 3081 3079
2928 2925 2923 2926 2932 2941 2951 2957 2964 2969 2972 2971 2973 2978 2986 2991 2995 3001 3007 3013 3019 3024 3031 3037 3042 3048 3054 3059 3064 3067 3070 3073 3075 3078 3078 3078 3079 3079 3079 3077 3076 3075 3073 3072
2927 2926 2927 2932 2938 2944 2951 2956 2964 2970 2974 2973 2974 2982 2987 2992 2997 3004 3010 3015 3020 3026 3033 3039 3045 3049 3055 3059 3062 3066 3068 3071 3073 3075 3074 3073 3075 3075 3074 3072 3069 3067 3065 3062
2932 2931 2930 2934 2940 2948 2956 2956 2965 2972 2976 2976 2975 2979 2985 2993 3000 3005 3010 3017 3023 3029 3035 3040 3046 3050 3054 3058 3062 3064 3066 3068 3070 3072 3072 3072 3072 3070 3067 3065 3062 3059 3057 3054
2935 2933 2933 2937 2943 2948 2950 2957 2965 2974 2977 2973 2976 2982 2988 2992 2999 3008 3016 3021 3027 3032 3036 3041 3045 3049 3053 3056 3060 3062 3065 3067 3070 3070 3069 3067 3066 3063 3061 3058 3055 3051 3047 3044
2938 2939 2940 2943 2938 2948 2957 2961 2965 2971 2978 2981 2975 2985 2991 2998 3005 3011 3020 3025 3030 3033 3037 3042 3046 3049 3053 3057 3060 3063 3065 3067 3067 3066 3064 3062 3059 3055 3052 3048 3044 3040 3037 3033
2943 2942 2943 2944 2945 2950 2958 2961 2969 2976 2982 2984 2983 2992 2995 3001 3006 3013 3021 3027 3031 3036 3040 3044 3047 3051 3054 3058 3060 3062 3063 3063 3062 3060 3058 3055 3051 3047 3043 3040 3036 3033 3029 3026
2946 2946 2947 2946 2949 2956 2961 2966 2971 2976 2983 2982 2990 2995 3001 3006 3011 3015 3022 3028 3033 3037 3041 3044 3048 3051 3055 3057 3059 3059 3060 3059 3057 3055 3052 3048 3045 3041 3036 3033 3030 3026 3023 3020
2950 2952 2951 2950 2952 2960 2963 2969 2974 2975 2979 2984 2990 2995 3000 3009 3015 3020 3025 3030 3034 3039 3042 3046 3049 3052 3054 3056 3056 3057 3055 3054 3052 3049 3045 3040 3038 3036 3033 3030 3028 3025 3021 3017
2955 2954 2954 2955 2959 2961 2966 2971 2975 2978 2986 2987 2994 3000 3008 3012 3017 3022 3027 3031 3036 3040 3044 3047 3049 3050 3052 3053 3053 3053 3052 3049 3046 3044 3042 3040 3037 3034 3032 3029 3026 3023 3020 3018
2954 2956 2956 2960 2962 2965 2970 2976 2977 2984 2988 2992 2999 3005 3010 3014 3019 3025 3029 3034 3038 3041 3044 3046 3048 3050 3050 3051 3050 3049 3047 3045 3044 3042 3039 3036 3034 3032 3030 3028 3025 3023 3020 3019
2958 2959 2960 2961 2964 2968 2973 2978 2982 2986 2991 2995 3002 3008 3013 3017 3023 3028 3032 3036 3040 3043 3045 3046 3047 3048 3048 3048 3047 3046 3044 3042 3041 3040 3037 3035 3033 3032 3030 3028 3025 3024 3022 3020
2961 2962 2964 2964 2967 2970 2974 2979 2985 2988 2994 3001 3005 3005 3013 3023 3026 3032 3036 3039 3042 3043 3044 3045 3046 3046 3046 3045 3044 3043 3042 3041 3039 3039 3037 3034 3033 3032 3029 3027 3026 3024 3022 3019